Notices

What's New in latest Release from April 7th, 2021:

- Updated Glossary, including Speed of Maximum Gust, and Total Hourly Precipitation

- Updated national and regional climate services offices contacts and prices information

- Addition of station inventory lists for 1981-2010, 1971-2000, and 1961-1990 Normals.

If you haven't already, please take our survey and provide feedback about our website: https://eccc.sondage-survey.ca/f/LanguageSelection.aspx?s=442ca660-fcf1-47c0-95a9-59707d6fd709

Hourly Data Report for June 03, 2021

OTTAWA INTL A
ONTARIO
Current Station Operator: NAVCAN

45°19'00.000" N
75°40'00.000" W
114.90 m
6106001
71628
YOW

Download Data

Hourly Data (June 2021)
Hourly Data Report for June 3, 2021
TIME
LST
Temp Definition
°C
Dew Point Definition
°C
Rel Hum Definition
%
Precip. Amount Definition
mm

Wind Dir Definition
10's deg

Wind Spd Definition
km/h
Visibility Definition
km
Stn Press Definition
kPa
Hmdx Definition


Wind Chill Definition


Weather Definition


00:00 17.2 13.9 80   18 12 24.1 100.25     LegendNANA
01:00 16.1 14.1 88   17 9 24.1 100.19     Clear
02:00 15.1 13.8 92   17 7 24.1 100.15     LegendNANA
03:00 15.5 14.2 92   19 8 24.1 100.14     Rain
04:00 15.7 14.9 95   19 12 9.7 100.14     Rain,Fog
05:00 15.7 15.3 97   20 7 8.1 100.12     Moderate Rain,Fog
06:00 15.7 15.4 98   17 5 6.4 100.12     Rain,Fog
07:00 16.0 15.2 95   4 5 12.9 100.07     Rain
08:00 16.1 15.4 96   7 9 12.9 100.00     Rain
09:00 16.2 15.8 97   9 9 8.1 99.94     Rain,Fog
10:00 16.7 16.0 95   11 13 12.9 99.86     Rain
11:00 16.7 16.1 96   14 8 12.9 99.83     Rain
12:00 18.2 16.5 90   19 8 24.1 99.78     LegendNANA
13:00 18.7 16.6 88   19 5 24.1 99.75     Mostly Cloudy
14:00 19.8 16.4 81   20 11 24.1 99.67     LegendNANA
15:00 20.7 16.4 76   20 12 24.1 99.64 26   LegendNANA
16:00 20.3 16.0 76   27 12 24.1 99.58 25   Mostly Cloudy
17:00 20.8 16.1 74   24 9 24.1 99.54 25   LegendNANA
18:00 21.5 15.6 69   22 19 24.1 99.49 26   LegendNANA
19:00 19.9 15.5 75   23 9 24.1 99.50     Mostly Cloudy
20:00 18.6 15.2 80   22 6 24.1 99.57     LegendNANA
21:00 18.2 15.9 86   19 8 24.1 99.61     LegendNANA
22:00 17.4 16.4 93   20 13 24.1 99.56     Clear
23:00 16.7 16.1 96   20 8 24.1 99.59     LegendNANA

Notes on Data Quality.

Legend

  • E = Estimated
  • M = Missing
  • NA = Not Available*
  • [empty] = Indicates an unobserved value
Date modified: